Home > Weather > Edinburgh > Past weeks

Flag for United Kingdom Weather for the Past 2 Weeks in Edinburgh, Scotland, United Kingdom

Now
46 °F

Cool.


Feels Like: 42 °F
Forecast: 40 / 55 °F
Wind: 9 mph from Southwest

Location: Edinburgh Airport

Current Time: Apr 30, 2016 at 8:58:45 PM

Latest Report: Apr 30, 2016 at 8:20 PM


Visibility: N/A

Pressure: 30.12 "Hg

Humidity: 62%

Dew Point: 34 °F

Location of EdinburghLocation

Historic Weather in Edinburgh — Graph

°F

Edinburgh Temperature Yesterday

Maximum temperature yesterday: 46 °F (at 5:50 PM)
Minimum temperature yesterday: 34 °F (at 2:20 AM)
Average temperature yesterday: 40 °F

High & Low Weather Summary for the Past Weeks

 TemperatureHumidityPressure
High61 °F (Apr 20, 3:50 PM)100% (Apr 15, 9:50 PM)30.45 "Hg (Apr 15, 9:50 PM)
Low28 °F (Apr 17, 2:50 AM)35% (Apr 24, 4:20 PM)29.53 "Hg (Apr 28, 11:20 PM)
Average43 °F70%30.02 "Hg
* Reported Apr 15 7:20 PM — Apr 30 7:20 PM, Edinburgh, Weather by CustomWeather, © 2016

Note: Actual official high and low records may vary slightly from our data, if they occured in-between our weather recording intervals... More about our weather records

Advertising

Edinburgh Weather History for the Previous 24 Hours

Scroll right to see more
 ConditionsComfort  
Time TempWeatherWind HumidityBarometerVisibility
7:20 PM
Sat, Apr 30
50 °FPassing clouds.15 mph54%30.12 "HgN/A
6:50 PM52 °FPartly sunny.14 mph50%30.09 "HgN/A
6:20 PM52 °FPassing clouds.14 mph54%30.09 "HgN/A
5:50 PM52 °FPassing clouds.14 mph50%30.09 "HgN/A
5:20 PM50 °FPassing clouds.12 mph54%30.09 "HgN/A
4:50 PM52 °FScattered clouds.10 mph47%30.09 "HgN/A
4:20 PM50 °FPartly sunny.9 mph54%30.09 "HgN/A
3:50 PM50 °FPartly sunny.6 mph54%30.09 "HgN/A
3:20 PM54 °FPassing clouds.10 mph44%30.07 "HgN/A
2:50 PM54 °FScattered clouds.14 mph51%30.07 "HgN/A
2:20 PM52 °FPartly sunny.10 mph50%30.07 "HgN/A
1:50 PM52 °FPassing clouds.8 mph50%30.07 "HgN/A
1:20 PM52 °FPartly sunny.6 mph50%30.07 "HgN/A
12:50 PM48 °FScattered clouds.2 mph58%30.07 "HgN/A
12:20 PM48 °FPartly sunny.6 mph58%30.07 "HgN/A
11:20 AM48 °FScattered clouds.6 mph58%30.04 "HgN/A
10:50 AM48 °FScattered clouds.6 mph58%30.04 "HgN/A
10:20 AM46 °FScattered clouds.8 mph62%30.04 "HgN/A
9:20 AM45 °FPassing clouds.7 mph71%30.04 "HgN/A
8:50 AM43 °FPassing clouds.7 mph76%30.04 "HgN/A
8:20 AM43 °FPassing clouds.7 mph76%30.04 "HgN/A
7:50 AM39 °FChilly.8 mph81%30.01 "HgN/A
7:20 AM37 °FChilly.9 mph87%30.01 "HgN/A
6:50 AM36 °FChilly.7 mph87%30.01 "HgN/A
6:20 AM32 °FChilly.5 mph93%30.01 "HgN/A
5:50 AM32 °FChilly.7 mph93%29.98 "HgN/A
5:20 AM34 °FPassing clouds.6 mph87%29.98 "HgN/A
4:50 AM32 °FChilly.5 mph87%29.98 "HgN/A
4:20 AM32 °FChilly.5 mph93%29.98 "HgN/A
3:20 AM34 °FChilly.6 mph87%29.98 "HgN/A
2:50 AM34 °FChilly.5 mph87%29.95 "HgN/A
2:20 AM34 °FChilly.5 mph87%29.95 "HgN/A
1:50 AM34 °FChilly.2 mph87%29.95 "HgN/A
1:20 AM37 °FChilly.3 mph81%29.95 "HgN/A
12:50 AM37 °FChilly.5 mph81%29.95 "HgN/A
12:20 AM37 °FChilly.5 mph81%29.92 "HgN/A
11:50 PM
Fri, Apr 29
37 °FChilly.6 mph81%29.92 "HgN/A
11:20 PM39 °FChilly.3 mph75%29.92 "HgN/A
10:50 PM41 °FQuite cool.2 mph70%29.92 "HgN/A
10:20 PM43 °FQuite cool.2 mph66%29.89 "HgN/A
9:50 PM43 °FQuite cool.5 mph66%29.89 "HgN/A
9:20 PM45 °FQuite cool.5 mph61%29.89 "HgN/A
8:50 PM45 °FQuite cool.6 mph61%29.86 "HgN/A
8:20 PM45 °FQuite cool.5 mph66%29.86 "HgN/A
Weather by CustomWeather, © 2016

See weather overviewHow to use our weather pages